Location: Shepherdstown, WV
(39.4326°N, 77.8042°W)
Time: 16:32:11
(UTC-04:00)

Tiros 1 despin weight - Pass Details

Date: 05 August 2021
Orbit: 593 x 641 km, 48.2° (Epoch: 18 September)

Event Time Altitude Azimuth Distance (km) Brightness Sun altitude
Rises 17:51:43 0° 302° (WNW) 2,943 ? 26.9°
Reaches altitude 10° 17:54:04 10° 305° (NW) 2,032 ? 26.4°
Maximum altitude 17:58:44 63° 27° (NNE) 716 ? 25.5°
Drops below altitude 10° 18:03:20 10° 109° (ESE) 2,014 ? 24.6°
Sets 18:05:40 0° 112° (ESE) 2,915 ? 24.2°
